| time (UTC) | temp F | wind direction | speed knots | gust knots | rain 1hr in | rain 24hr in | rain mn in | humidity % | barometer mb |
| 20260903104605 | 59 | 0 | 0.9 | 6.1 | 0.00 | 0.24 | 0.07 | 87 | 1014.9 |
| 20260903103101 | 59 | 234 | 0.9 | 6.1 | 0.00 | 0.24 | 0.07 | 86 | 1014.9 |
| 20260903101607 | 60 | 328 | 0.9 | 7.8 | 0.00 | 0.24 | 0.07 | 86 | 1014.8 |
| 20260903094611 | 61 | 315 | 0.9 | 7.8 | 0.00 | 0.24 | 0.07 | 82 | 1014.5 |
| 20260903093107 | 62 | 299 | 0.0 | 5.2 | 0.00 | 0.24 | 0.07 | 80 | 1014.6 |
| 20260903091609 | 62 | 329 | 3.5 | 8.7 | 0.00 | 0.24 | 0.07 | 79 | 1014.5 |
| 20260903090106 | 62 | 284 | 1.7 | 7.0 | 0.00 | 0.24 | 0.07 | 82 | 1014.4 |
| 20260903084618 | 62 | 281 | 1.7 | 6.1 | 0.00 | 0.24 | 0.07 | 82 | 1014.5 |
| 20260903083107 | 62 | 317 | 0.9 | 7.0 | 0.00 | 0.24 | 0.07 | 83 | 1014.4 |
| 20260903081602 | 64 | 355 | 1.7 | 6.1 | 0.00 | 0.24 | 0.07 | 77 | 1014.5 |
| 20260903080106 | 64 | 292 | 1.7 | 7.8 | 0.00 | 0.24 | 0.07 | 77 | 1014.5 |
| 20260903074600 | 65 | 257 | 5.2 | 11.3 | 0.00 | 0.24 | 0.07 | 75 | 1014.6 |
| 20260903073115 | 66 | 315 | 1.7 | 7.0 | 0.00 | 0.24 | 0.07 | 71 | 1014.7 |
| 20260903071601 | 66 | 301 | 2.6 | 7.8 | 0.00 | 0.24 | 0.07 | 71 | 1014.8 |
| 20260903070108 | 66 | 267 | 1.7 | 7.8 | 0.00 | 0.24 | 0.07 | 72 | 1014.9 |
| 20260903064602 | 66 | 257 | 1.7 | 6.1 | 0.00 | 0.24 | 0.07 | 71 | 1015.0 |
| 20260903063126 | 65 | 334 | 1.7 | 7.8 | 0.00 | 0.24 | 0.07 | 75 | 1015.2 |
| 20260903061604 | 66 | 294 | 1.7 | 6.1 | 0.00 | 0.24 | 0.07 | 77 | 1015.4 |
| 20260903060108 | 65 | 0 | 1.7 | 5.2 | 0.00 | 0.24 | 0.07 | 82 | 1015.4 |
| 20260903054601 | 63 | 355 | 0.0 | 8.7 | 0.00 | 0.24 | 0.07 | 88 | 1015.7 |
| 20260903053104 | 63 | 9 | 0.9 | 4.3 | 0.00 | 0.24 | 0.07 | 86 | 1016.0 |
| 20260903051602 | 62 | 67 | 2.6 | 7.0 | 0.01 | 0.24 | 0.07 | 86 | 1016.3 |
| 20260903050105 | 62 | 341 | 1.7 | 4.3 | 0.01 | 0.24 | 0.07 | 90 | 1016.4 |
| 20260903044600 | 61 | 281 | 0.9 | 4.3 | 0.01 | 0.24 | 0.07 | 91 | 1016.8 |
| 20260903043110 | 60 | 324 | 0.9 | 6.1 | 0.02 | 0.24 | 0.07 | 89 | 1017.3 |
| 20260903041601 | 62 | 335 | 0.9 | 7.0 | 0.00 | 0.22 | 0.05 | 89 | 1017.6 |
| 20260903040105 | 62 | 286 | 0.0 | 6.1 | 0.00 | 0.22 | 0.05 | 90 | 1017.6 |
| 20260903034605 | 60 | 360 | 0.9 | 7.0 | 0.00 | 0.22 | 0.05 | 90 | 1018.0 |
| 20260903033103 | 61 | 19 | 0.9 | 5.2 | 0.00 | 0.22 | 0.04 | 89 | 1017.9 |
| 20260903031557 | 61 | 5 | 2.6 | 8.7 | 0.00 | 0.22 | 0.04 | 84 | 1018.0 |
| 20260903030110 | 62 | 343 | 0.0 | 2.6 | 0.00 | 0.22 | 0.04 | 84 | 1018.0 |
| 20260903024600 | 63 | 0 | 0.0 | 3.5 | 0.00 | 0.22 | 0.04 | 83 | 1018.1 |
| 20260903023108 | 63 | 0 | 0.9 | 4.3 | 0.00 | 0.22 | 0.04 | 85 | 1018.4 |
| 20260903021602 | 61 | 19 | 0.0 | 2.6 | 0.00 | 0.22 | 0.04 | 88 | 1018.6 |
| 20260903014603 | 61 | 14 | 0.9 | 5.2 | 0.00 | 0.22 | 0.04 | 89 | 1019.0 |
| 20260903013103 | 61 | 0 | 0.0 | 3.5 | 0.00 | 0.22 | 0.04 | 91 | 1019.0 |
| 20260903011610 | 60 | 0 | 0.0 | 3.5 | 0.00 | 0.22 | 0.04 | 93 | 1019.1 |
| 20260903010108 | 59 | 19 | 0.0 | 1.7 | 0.00 | 0.22 | 0.04 | 94 | 1019.1 |
| 20260903004625 | 58 | 14 | 0.0 | 4.3 | 0.00 | 0.22 | 0.04 | 94 | 1018.8 |
| 20260903003107 | 57 | 0 | 0.0 | 2.6 | 0.00 | 0.22 | 0.04 | 95 | 1018.8 |
| 20260903001604 | 58 | 0 | 0.0 | 0.9 | 0.00 | 0.22 | 0.04 | 95 | 1019.0 |
| 20260902234601 | 56 | 0 | 0.0 | 0.9 | 0.00 | 0.22 | 0.04 | 95 | 1018.9 |
| 20260902233105 | 55 | 0 | 0.0 | 0.9 | 0.00 | 0.22 | 0.04 | 95 | 1018.9 |
| 20260902231607 | 55 | 0 | 0.0 | 0.9 | 0.00 | 0.22 | 0.04 | 95 | 1018.9 |
| 20260902230106 | 54 | 0 | 0.0 | 0.9 | 0.00 | 0.22 | 0.04 | 95 | 1018.7 |
| 20260902224603 | 54 | 0 | 0.0 | 0.9 | 0.00 | 0.22 | 0.04 | 95 | 1018.5 |
| 20260902223121 | 53 | 0 | 0.0 | 0.0 | 0.00 | 0.22 | 0.04 | 95 | 1018.9 |
| 20260902221608 | 53 | 0 | 0.0 | 0.0 | 0.00 | 0.22 | 0.04 | 95 | 1018.9 |
| 20260902220112 | 53 | 0 | 0.0 | 0.0 | 0.00 | 0.21 | 0.03 | 95 | 1018.8 |
| 20260902214604 | 54 | 0 | 0.0 | 0.0 | 0.00 | 0.21 | 0.03 | 94 | 1018.9 |
| 20260902213102 | 55 | 0 | 0.0 | 0.9 | 0.00 | 0.21 | 0.03 | 95 | 1018.8 |
| 20260902211603 | 55 | 0 | 0.0 | 0.0 | 0.00 | 0.21 | 0.03 | 95 | 1018.9 |
| 20260902210100 | 55 | 0 | 0.0 | 0.0 | 0.00 | 0.21 | 0.03 | 95 | 1018.8 |
| 20260902204642 | 55 | 0 | 0.0 | 0.9 | 0.00 | 0.21 | 0.03 | 95 | 1018.7 |
| 20260902203102 | 55 | 0 | 0.0 | 0.9 | 0.00 | 0.21 | 0.03 | 95 | 1018.8 |
| 20260902201603 | 55 | 0 | 0.0 | 0.0 | 0.00 | 0.21 | 0.03 | 95 | 1018.8 |
| 20260902200103 | 55 | 0 | 0.0 | 0.9 | 0.00 | 0.21 | 0.03 | 95 | 1018.9 |
| 20260902194603 | 55 | 0 | 0.0 | 0.9 | 0.00 | 0.21 | 0.03 | 95 | 1018.9 |
| 20260902193105 | 56 | 0 | 0.0 | 1.7 | 0.00 | 0.21 | 0.03 | 94 | 1019.1 |
| 20260902191604 | 56 | 0 | 0.0 | 0.0 | 0.03 | 0.21 | 0.03 | 95 | 1019.1 |
| 20260902190105 | 56 | 0 | 0.0 | 1.7 | 0.03 | 0.21 | 0.03 | 95 | 1019.5 |
| 20260902184656 | 56 | 0 | 0.0 | 0.0 | 0.03 | 0.21 | 0.03 | 94 | 1019.7 |
| 20260902183113 | 56 | 0 | 0.0 | 0.9 | 0.03 | 0.21 | 0.03 | 94 | 1019.8 |
| 20260902181614 | 56 | 0 | 0.0 | 0.0 | 0.00 | 0.18 | 0.00 | 94 | 1020.0 |
| 20260902180109 | 56 | 0 | 0.0 | 0.0 | 0.00 | 0.17 | 0.00 | 94 | 1020.0 |
| 20260902174603 | 56 | 0 | 0.0 | 0.0 | 0.00 | 0.17 | 0.00 | 94 | 1020.0 |
| 20260902173119 | 56 | 0 | 0.0 | 0.0 | 0.00 | 0.17 | 0.00 | 94 | 1020.0 |
| 20260902171607 | 55 | 0 | 0.0 | 0.0 | 0.00 | 0.17 | 0.00 | 94 | 1020.2 |
| 20260902170104 | 55 | 0 | 0.0 | 0.0 | 0.00 | 0.17 | 0.00 | 94 | 1020.2 |
| 20260902164606 | 55 | 0 | 0.0 | 0.0 | 0.00 | 0.17 | 0.00 | 94 | 1020.2 |
| 20260902163105 | 55 | 0 | 0.0 | 0.0 | 0.00 | 0.17 | 0.00 | 94 | 1020.4 |
| 20260902161602 | 55 | 0 | 0.0 | 0.9 | 0.00 | 0.17 | 0.00 | 94 | 1020.5 |
| 20260902160104 | 55 | 0 | 0.0 | 0.9 | 0.00 | 0.17 | 0.00 | 94 | 1020.7 |
| 20260902154605 | 55 | 0 | 0.0 | 0.0 | 0.00 | 0.17 | 0.17 | 93 | 1020.8 |
| 20260902153108 | 55 | 0 | 0.0 | 0.0 | 0.00 | 0.17 | 0.17 | 94 | 1020.9 |
| 20260902151606 | 56 | 0 | 0.0 | 0.0 | 0.00 | 0.17 | 0.17 | 94 | 1021.0 |
| 20260902150105 | 56 | 0 | 0.0 | 0.0 | 0.00 | 0.17 | 0.17 | 93 | 1021.3 |
| 20260902144603 | 56 | 0 | 0.0 | 0.0 | 0.00 | 0.17 | 0.17 | 93 | 1021.4 |
| 20260902143105 | 56 | 0 | 0.0 | 0.0 | 0.00 | 0.17 | 0.17 | 93 | 1021.3 |
| 20260902141601 | 56 | 0 | 0.0 | 0.0 | 0.00 | 0.17 | 0.17 | 93 | 1021.4 |
| 20260902140101 | 56 | 0 | 0.0 | 0.0 | 0.00 | 0.17 | 0.17 | 93 | 1021.5 |
| 20260902134804 | 57 | 0 | 0.0 | 0.0 | 0.00 | 0.17 | 0.17 | 93 | 1021.6 |
| 20260902133112 | 57 | 0 | 0.0 | 0.0 | 0.00 | 0.17 | 0.17 | 93 | 1021.7 |
| 20260902131607 | 57 | 0 | 0.0 | 0.0 | 0.00 | 0.17 | 0.17 | 93 | 1021.8 |
| 20260902130115 | 56 | 0 | 0.0 | 0.0 | 0.00 | 0.16 | 0.16 | 92 | 1021.8 |
| 20260902124605 | 57 | 0 | 0.0 | 0.0 | 0.00 | 0.16 | 0.16 | 92 | 1021.8 |
| 20260902123112 | 57 | 0 | 0.0 | 0.0 | 0.00 | 0.16 | 0.16 | 92 | 1021.7 |
| 20260902121604 | 57 | 0 | 0.0 | 0.0 | 0.03 | 0.16 | 0.16 | 92 | 1021.7 |
| 20260902120104 | 58 | 0 | 0.0 | 0.9 | 0.07 | 0.16 | 0.16 | 92 | 1021.7 |
| 20260902114604 | 58 | 0 | 0.0 | 0.9 | 0.12 | 0.16 | 0.16 | 91 | 1021.6 |
| 20260902113100 | 58 | 0 | 0.0 | 1.7 | 0.12 | 0.15 | 0.15 | 91 | 1021.5 |
| 20260902111604 | 58 | 252 | 0.0 | 2.6 | 0.11 | 0.13 | 0.13 | 91 | 1021.5 |